Weather in Isle of Comandatuba

Brazil     15°20′50″S   39°01′57″W
temp.,
°C
wind,
m/s
gust,
m/s
humid.,
%
clouds,
%
prec.,
mm/h
press.,
hPa
HPBL,
m
27 october, wed
wed2700:00+23ese36861 0.1 1017399
03:00+24se36870 0.5 1016393
06:00+24se358766 0.5 1018328
09:00+25ese47850 2.4 1019752
12:00+27ese567020 0.9 10181125
15:00+27se566613 1.1 10171189
18:00+24se48835 0.3 1018534
21:00+23se37880 0.7 1020397
28 october, thu
thu2800:00+22s249020 0.8 1019320
03:00+22sw259332 2.0 1017201
06:00+23se359029 5.4 1018326
09:00+24ese588759 12.2 1019544
12:00+26se57764 2.7 10181035
15:00+27se565910 2.8 10161359
18:00+24se37730 0.0 1017509
21:00+23sse378521 0.2 1019491
29 october, fri
fri2900:00+22sse368747 0.3 1018479
03:00+21ssw259045 0.6 1016291
06:00+22ssw358919 0.9 1017247
09:00+26se446111 1.2 10171243
12:00+27ese446011 0.0 10161057
15:00+26ese446937 0.1 10141031
18:00+23se358010 0.1 1015430
21:00+23se35771 0.3 1016524
30 october, sat
sat3000:00+22se137921 0.0 1015449
03:00+20wsw239021 0.0 1013137
06:00+21sw248319 0.0 1015138
09:00+24s3474100 0.1 1016610
12:00+24sw357982 0.2 1015417
15:00+25se117717 0.5 1012412
18:00+23e24845 0.2 1014275
21:00+23ese138633 0.3 1016333
31 october, sun
sun3100:00+24e238251 0.3 1015393
03:00+22ene0284100 0.3 1014346
06:00+22ssw1285100 0.4 1016264
09:00+27e2365100 0.5 1016975
12:00+27ene446561 0.2 10151063
15:00+27ene3468100 0.3 1013955
18:00+24ene248495 0.3 1014341
21:00+24ene2487100 0.5 1016335